TimeEEST,TemperatureF,Dew PointF,Humidity,Sea Level PressureIn,VisibilityMPH,Wind Direction,Wind SpeedMPH,Gust SpeedMPH,PrecipitationIn,Events,Conditions,WindDirDegrees,DateUTC
12:50 AM,46.4,39.2,76,30.15,6.2,NNE,3.5,-,N/A,,Scattered Clouds,30,2012-10-10 21:50:00
1:50 AM,48.2,39.2,71,30.15,6.2,NE,4.6,-,N/A,,Mostly Cloudy,50,2012-10-10 22:50:00
3:00 AM,49,40,61,,6,ENE,2.3,,,,Partly Cloudy,70,2012-10-11 00:00:00
3:50 AM,46.4,37.4,71,30.15,6.2,Calm,Calm,-,N/A,,Scattered Clouds,0,2012-10-11 00:50:00
4:50 AM,50.0,35.6,58,30.15,6.2,Variable,3.5,-,N/A,,Mostly Cloudy,0,2012-10-11 01:50:00
5:50 AM,55.4,41.0,58,30.18,6.2,SSW,9.2,20.7,N/A,,Mostly Cloudy,200,2012-10-11 02:50:00
6:50 AM,51.8,46.4,82,30.18,6.2,Variable,2.3,-,N/A,,Mostly Cloudy,0,2012-10-11 03:50:00
7:50 AM,55.4,50.0,82,30.18,6.2,NNE,6.9,-,N/A,,Mostly Cloudy,30,2012-10-11 04:50:00
8:50 AM,59.0,48.2,67,30.18,6.2,ENE,5.8,-,N/A,,Mostly Cloudy,60,2012-10-11 05:50:00
9:50 AM,62.6,46.4,55,30.15,6.2,NNE,5.8,-,N/A,,Mostly Cloudy,30,2012-10-11 06:50:00
10:50 AM,64.4,46.4,52,30.12,6.2,WNW,8.1,-,N/A,,Mostly Cloudy,300,2012-10-11 07:50:00
11:50 AM,64.4,44.6,49,30.09,6.2,WNW,6.9,-,N/A,,Mostly Cloudy,300,2012-10-11 08:50:00
12:50 PM,66.2,46.4,49,30.06,6.2,South,3.5,-,N/A,,Mostly Cloudy,170,2012-10-11 09:50:00
1:50 PM,55.4,44.6,67,30.09,5.0,SE,15.0,-,N/A,Rain,Light Rain Showers,140,2012-10-11 10:50:00
2:50 PM,64.4,42.8,45,30.06,6.2,SSE,10.4,-,N/A,,Mostly Cloudy,160,2012-10-11 11:50:00
3:00 PM,65,42,32,,7,SSE,10.4,,,,Partly Cloudy,160,2012-10-11 12:00:00
3:50 PM,64.4,41.0,42,30.06,6.2,East,8.1,-,N/A,,Mostly Cloudy,100,2012-10-11 12:50:00
4:50 PM,62.6,41.0,45,30.06,6.2,SSE,13.8,-,N/A,,Mostly Cloudy,150,2012-10-11 13:50:00
5:50 PM,60.8,42.8,52,30.06,6.2,South,11.5,-,N/A,,Mostly Cloudy,170,2012-10-11 14:50:00
6:50 PM,59.0,41.0,51,30.04,6.2,SE,19.6,-,N/A,,Mostly Cloudy,130,2012-10-11 15:50:00
7:50 PM,57.2,44.6,63,30.06,6.2,SE,16.1,-,N/A,Rain-Thunderstorm,Light Thunderstorms and Rain,140,2012-10-11 16:50:00
8:50 PM,55.4,44.6,67,30.04,6.2,ESE,9.2,-,N/A,Rain-Thunderstorm,Light Thunderstorms and Rain,120,2012-10-11 17:50:00
9:00 PM,56,45,56,,7,ESE,9.2,,,Rain-Thunderstorm,Thunderstorms and Rain,120,2012-10-11 18:00:00
9:50 PM,53.6,48.2,82,30.06,6.2,SSE,6.9,-,N/A,Rain-Thunderstorm,Light Thunderstorms and Rain,150,2012-10-11 18:50:00
10:50 PM,55.4,44.6,67,30.01,6.2,SSE,20.7,-,N/A,,Mostly Cloudy,150,2012-10-11 19:50:00
11:50 PM,57.2,42.8,59,30.01,6.2,SSE,19.6,-,N/A,,Mostly Cloudy,150,2012-10-11 20:50:00